Hourly Data Report for October 02, 2016

All times are specified in Local Standard Time (LST). Add 1 hour to adjust for Daylight Saving Time where and when it is observed.

POND INLET A
NUNAVUT

72°41'22.000" N
77°58'08.000" W
61.60 m
2403206
71095
YIO

Download Data

Hourly Data (October 2016)
Hourly Data Report for October 2, 2016
Temp Definition
°C
Dew Point Temp Definition
°C
Rel Hum Definition
%
Wind Dir Definition
10's deg

Wind Spd Definition
km/h
Visibility Definition
km
Stn Press Definition
kPa
Hmdx Definition


Wind Chill Definition


Weather Definition


TIME
00:00 Legend Double Dagger -3.5 -5.8 84 25 11 16.1 100.31   -8 LegendNANA
01:00 Legend Double Dagger -2.7 -5.8 79 27 18 16.1 100.26   -8 LegendNANA
02:00 Legend Double Dagger -1.4 -4.7 78 27 39 16.1 100.24   -9 LegendNANA
03:00 Legend Double Dagger -1.4 -4.4 80 26 50 16.1 100.15   -10 LegendNANA
04:00 Legend Double Dagger -1.3 -3.9 82 26 50 16.1 100.11   -10 LegendNANA
05:00 Legend Double Dagger -1.4 -3.8 84 27 39 16.1 100.09   -9 LegendNANA
06:00 Legend Double Dagger -1.6 -4.1 83 26 35 16.1 100.03   -9 LegendNANA
07:00 Legend Double Dagger -1.4 -5.3 75 27 21 16.1 100.02   -7 LegendNANA
08:00 Legend Double Dagger -1.4 -5.0 76 27 13 16.1 100.04   -6 LegendNANA
09:00 Legend Double Dagger -1.3 -4.2 81 27 39 16.1 99.99   -9 LegendNANA
10:00 Legend Double Dagger -1.6 -5.6 74 27 41 16.1 100.01   -10 LegendNANA
11:00 Legend Double Dagger -1.9 -5.9 74 27 41 16.1 99.98   -10 LegendNANA
12:00 Legend Double Dagger -2.1 -5.8 76 25 32 16.1 100.04   -9 LegendNANA
13:00 Legend Double Dagger -2.2 -5.3 79 24 34 16.1 100.02   -10 LegendNANA
14:00 Legend Double Dagger -2.3 -5.3 80 24 28 16.1 100.02   -9 LegendNANA
15:00 Legend Double Dagger -2.4 -5.8 78 25 30 16.1 100.02   -10 Snow
16:00 Legend Double Dagger -2.8 -4.6 87 26 21 16.1 100.02   -9 Snow
17:00 Legend Double Dagger -2.9 -3.7 94 26 15 9.7 99.97   -8 Snow
18:00 Legend Double Dagger -3.3 -4.0 95 21 18 2.8 99.91   -9 Snow
19:00 Legend Double Dagger -3.2 -3.8 96 21 24 2.0 99.84   -10 Snow
20:00 Legend Double Dagger -3.0 -3.6 96 21 34 1.6 99.73   -11 Snow
21:00 Legend Double Dagger -2.9 -3.5 96 21 39 1.2 99.64   -11 Snow
22:00 Legend Double Dagger -2.8 -3.5 95 21 41 2.0 99.56   -11 Snow
23:00 Legend Double Dagger -2.6 -3.3 95 21 35 2.0 99.50   -10 Snow

Notes on Data Quality.

Legend

  • E = Estimated
  • M = Missing
  • NA = Not Available
  • ‡ = Partner data that is not subject to review by the National Climate Archives
Date modified: